Time,TemperatureF,DewpointF,PressureIn,WindDirection,WindDirectionDegrees,WindSpeedMPH,WindSpeedGustMPH,Humidity,HourlyPrecipIn,Conditions,Clouds,dailyrainin,SoftwareType,DateUTC
2013-06-26 00:01:00,78.3,76.0,30.05,WSW,256,7.0,15.0,91,0.00,,,0.00,weatherlink.com 1.10,2013-06-26 04:01:00,
2013-06-26 00:16:00,78.4,76.0,30.04,WSW,240,9.0,15.0,91,0.00,,,0.00,weatherlink.com 1.10,2013-06-26 04:16:00,
2013-06-26 00:31:00,78.4,76.0,30.04,WSW,244,14.0,14.0,91,0.00,,,0.00,weatherlink.com 1.10,2013-06-26 04:31:00,
2013-06-26 00:46:00,78.3,76.0,30.04,WSW,248,11.0,12.0,91,0.00,,,0.00,weatherlink.com 1.10,2013-06-26 04:46:00,
2013-06-26 01:01:00,78.2,76.0,30.04,WSW,256,6.0,12.0,92,0.00,,,0.00,weatherlink.com 1.10,2013-06-26 05:01:00,
2013-06-26 01:16:00,78.1,76.0,30.04,West,261,9.0,10.0,92,0.00,,,0.00,weatherlink.com 1.10,2013-06-26 05:16:00,
2013-06-26 01:31:00,78.1,76.0,30.03,SW,234,6.0,11.0,92,0.00,,,0.00,weatherlink.com 1.10,2013-06-26 05:31:00,
2013-06-26 01:46:00,78.1,76.0,30.03,West,275,2.0,13.0,92,0.00,,,0.00,weatherlink.com 1.10,2013-06-26 05:46:00,
2013-06-26 02:02:00,78.1,76.0,30.03,West,266,2.0,12.0,92,0.00,,,0.00,weatherlink.com 1.10,2013-06-26 06:02:00,
2013-06-26 02:16:00,78.1,76.0,30.03,WSW,246,9.0,10.0,93,0.00,,,0.00,weatherlink.com 1.10,2013-06-26 06:16:00,
2013-06-26 02:31:00,78.1,76.0,30.03,West,266,8.0,11.0,93,0.00,,,0.00,weatherlink.com 1.10,2013-06-26 06:31:00,
2013-06-26 02:46:00,78.0,76.0,30.02,SW,217,4.0,12.0,93,0.00,,,0.00,weatherlink.com 1.10,2013-06-26 06:46:00,
2013-06-26 03:01:00,78.0,76.0,30.02,West,264,6.0,14.0,93,0.00,,,0.00,weatherlink.com 1.10,2013-06-26 07:01:00,
2013-06-26 03:17:00,77.9,76.0,30.02,West,267,3.0,11.0,93,0.00,,,0.00,weatherlink.com 1.10,2013-06-26 07:17:00,
2013-06-26 03:31:00,77.7,76.0,30.02,WSW,246,7.0,10.0,94,0.00,,,0.00,weatherlink.com 1.10,2013-06-26 07:31:00,
2013-06-26 03:47:00,77.6,76.0,30.02,WSW,256,3.0,10.0,94,0.00,,,0.00,weatherlink.com 1.10,2013-06-26 07:47:00,
2013-06-26 04:02:00,77.5,75.0,30.02,WSW,242,5.0,9.0,93,0.00,,,0.00,weatherlink.com 1.10,2013-06-26 08:02:00,
2013-06-26 04:17:00,77.5,75.0,30.02,West,271,5.0,8.0,93,0.00,,,0.00,weatherlink.com 1.10,2013-06-26 08:17:00,
2013-06-26 04:32:00,77.5,75.0,30.02,West,269,6.0,11.0,93,0.00,,,0.00,weatherlink.com 1.10,2013-06-26 08:32:00,
2013-06-26 04:47:00,77.7,76.0,30.02,WNW,288,4.0,11.0,93,0.00,,,0.00,weatherlink.com 1.10,2013-06-26 08:47:00,
2013-06-26 05:02:00,77.7,76.0,30.02,West,271,4.0,11.0,93,0.00,,,0.00,weatherlink.com 1.10,2013-06-26 09:02:00,
2013-06-26 05:17:00,77.8,76.0,30.03,WSW,250,8.0,11.0,93,0.00,,,0.00,weatherlink.com 1.10,2013-06-26 09:17:00,
2013-06-26 05:32:00,77.8,76.0,30.03,WSW,252,7.0,12.0,93,0.00,,,0.00,weatherlink.com 1.10,2013-06-26 09:32:00,
2013-06-26 05:47:00,77.8,76.0,30.03,WSW,243,6.0,11.0,93,0.00,,,0.00,weatherlink.com 1.10,2013-06-26 09:47:00,
2013-06-26 06:02:00,77.8,76.0,30.03,West,277,9.0,14.0,93,0.00,,,0.00,weatherlink.com 1.10,2013-06-26 10:02:00,
2013-06-26 06:17:00,77.8,75.0,30.03,WNW,286,8.0,14.0,92,0.00,,,0.00,weatherlink.com 1.10,2013-06-26 10:17:00,
2013-06-26 06:32:00,77.9,76.0,30.04,West,277,6.0,11.0,92,0.00,,,0.00,weatherlink.com 1.10,2013-06-26 10:32:00,
2013-06-26 06:47:00,78.0,75.0,30.04,WSW,254,9.0,13.0,91,0.00,,,0.00,weatherlink.com 1.10,2013-06-26 10:47:00,
2013-06-26 07:02:00,78.0,75.0,30.04,West,269,6.0,15.0,90,0.00,,,0.00,weatherlink.com 1.10,2013-06-26 11:02:00,
2013-06-26 07:17:00,78.3,75.0,30.04,West,281,8.0,13.0,90,0.00,,,0.00,weatherlink.com 1.10,2013-06-26 11:17:00,
2013-06-26 07:32:00,78.5,75.0,30.04,West,265,12.0,15.0,90,0.00,,,0.00,weatherlink.com 1.10,2013-06-26 11:32:00,
2013-06-26 07:47:00,78.6,75.0,30.04,SW,232,13.0,16.0,89,0.00,,,0.00,weatherlink.com 1.10,2013-06-26 11:47:00,
2013-06-26 08:02:00,78.8,75.0,30.04,WSW,253,8.0,14.0,88,0.00,,,0.00,weatherlink.com 1.10,2013-06-26 12:02:00,
2013-06-26 08:17:00,79.0,75.0,30.04,WNW,286,8.0,15.0,86,0.00,,,0.00,weatherlink.com 1.10,2013-06-26 12:17:00,
2013-06-26 08:32:00,79.4,75.0,30.04,WSW,250,12.0,16.0,85,0.00,,,0.00,weatherlink.com 1.10,2013-06-26 12:32:00,
2013-06-26 08:47:00,79.8,74.0,30.04,West,276,11.0,16.0,83,0.00,,,0.00,weatherlink.com 1.10,2013-06-26 12:47:00,
2013-06-26 09:02:00,80.2,74.0,30.04,West,279,4.0,13.0,82,0.00,,,0.00,weatherlink.com 1.10,2013-06-26 13:02:00,
2013-06-26 09:17:00,80.9,75.0,30.04,West,275,13.0,16.0,82,0.00,,,0.00,weatherlink.com 1.10,2013-06-26 13:17:00,
2013-06-26 09:32:00,81.3,75.0,30.04,West,265,7.0,15.0,80,0.00,,,0.00,weatherlink.com 1.10,2013-06-26 13:32:00,
2013-06-26 09:47:00,80.7,74.0,30.03,West,276,7.0,14.0,79,0.00,,,0.00,weatherlink.com 1.10,2013-06-26 13:47:00,
2013-06-26 10:02:00,81.6,74.0,30.03,WNW,292,8.0,12.0,78,0.00,,,0.00,weatherlink.com 1.10,2013-06-26 14:02:00,
2013-06-26 10:17:00,81.5,75.0,30.03,WSW,245,10.0,14.0,80,0.00,,,0.00,weatherlink.com 1.10,2013-06-26 14:17:00,
2013-06-26 10:32:00,81.5,76.0,30.02,SW,231,10.0,15.0,82,0.00,,,0.00,weatherlink.com 1.10,2013-06-26 14:32:00,
2013-06-26 10:47:00,81.8,75.0,30.02,SW,234,10.0,14.0,80,0.00,,,0.00,weatherlink.com 1.10,2013-06-26 14:47:00,
2013-06-26 11:02:00,83.2,75.0,30.02,WNW,288,7.0,15.0,76,0.00,,,0.00,weatherlink.com 1.10,2013-06-26 15:02:00,
2013-06-26 11:17:00,82.5,75.0,30.03,WSW,240,8.0,14.0,79,0.00,,,0.00,weatherlink.com 1.10,2013-06-26 15:17:00,
2013-06-26 11:32:00,82.7,74.0,30.02,SW,234,9.0,16.0,76,0.00,,,0.00,weatherlink.com 1.10,2013-06-26 15:32:00,
2013-06-26 11:47:00,82.7,75.0,30.02,SW,234,6.0,13.0,78,0.00,,,0.00,weatherlink.com 1.10,2013-06-26 15:47:00,
2013-06-26 12:02:00,82.9,76.0,30.02,WSW,248,8.0,12.0,79,0.00,,,0.00,weatherlink.com 1.10,2013-06-26 16:02:00,
2013-06-26 12:17:00,82.4,76.0,30.02,SSW,212,3.0,10.0,80,0.00,,,0.00,weatherlink.com 1.10,2013-06-26 16:17:00,
2013-06-26 12:32:00,82.1,76.0,30.01,SW,221,11.0,13.0,82,0.00,,,0.00,weatherlink.com 1.10,2013-06-26 16:32:00,
2013-06-26 12:47:00,81.2,76.0,30.02,SW,215,10.0,16.0,84,0.00,,,0.00,weatherlink.com 1.10,2013-06-26 16:47:00,
2013-06-26 13:02:00,81.0,77.0,30.01,SW,227,11.0,16.0,86,0.00,,,0.00,weatherlink.com 1.10,2013-06-26 17:02:00,
2013-06-26 13:17:00,81.0,77.0,30.01,SW,222,12.0,18.0,87,0.00,,,0.00,weatherlink.com 1.10,2013-06-26 17:17:00,
2013-06-26 13:32:00,81.3,77.0,30.01,SW,219,17.0,18.0,86,0.00,,,0.00,weatherlink.com 1.10,2013-06-26 17:32:00,
2013-06-26 13:47:00,81.8,77.0,30.01,West,267,6.0,14.0,86,0.00,,,0.00,weatherlink.com 1.10,2013-06-26 17:47:00,
2013-06-26 14:02:00,82.0,77.0,30.01,SW,227,8.0,15.0,85,0.00,,,0.00,weatherlink.com 1.10,2013-06-26 18:02:00,
2013-06-26 14:17:00,81.1,76.0,30.00,SSW,208,14.0,24.0,85,0.00,,,0.00,weatherlink.com 1.10,2013-06-26 18:17:00,
2013-06-26 14:32:00,80.8,76.0,29.99,SW,220,8.0,22.0,86,0.00,,,0.00,weatherlink.com 1.10,2013-06-26 18:32:00,
2013-06-26 14:47:00,80.8,76.0,29.99,SW,217,20.0,20.0,86,0.00,,,0.00,weatherlink.com 1.10,2013-06-26 18:47:00,
2013-06-26 15:02:00,80.4,76.0,29.98,WSW,246,14.0,23.0,87,0.00,,,0.00,weatherlink.com 1.10,2013-06-26 19:02:00,
2013-06-26 15:17:00,80.4,76.0,29.98,SW,220,14.0,22.0,87,0.00,,,0.00,weatherlink.com 1.10,2013-06-26 19:17:00,
2013-06-26 15:32:00,80.5,76.0,29.97,SW,229,7.0,24.0,86,0.00,,,0.00,weatherlink.com 1.10,2013-06-26 19:32:00,
2013-06-26 15:47:00,80.9,76.0,29.97,SW,223,7.0,23.0,86,0.00,,,0.00,weatherlink.com 1.10,2013-06-26 19:47:00,
2013-06-26 16:02:00,80.9,76.0,29.97,SW,215,13.0,25.0,85,0.00,,,0.00,weatherlink.com 1.10,2013-06-26 20:02:00,
2013-06-26 16:17:00,81.2,76.0,29.96,West,270,9.0,22.0,84,0.00,,,0.00,weatherlink.com 1.10,2013-06-26 20:17:00,
2013-06-26 16:32:00,81.1,76.0,29.96,SW,231,7.0,21.0,85,0.00,,,0.00,weatherlink.com 1.10,2013-06-26 20:32:00,
2013-06-26 16:47:00,81.2,77.0,29.97,SW,232,11.0,19.0,86,0.00,,,0.00,weatherlink.com 1.10,2013-06-26 20:47:00,
2013-06-26 17:02:00,81.1,77.0,29.97,West,276,10.0,19.0,87,0.00,,,0.00,weatherlink.com 1.10,2013-06-26 21:02:00,
2013-06-26 17:17:00,81.0,77.0,29.97,WSW,255,7.0,20.0,87,0.00,,,0.00,weatherlink.com 1.10,2013-06-26 21:17:00,
2013-06-26 17:32:00,80.2,76.0,29.96,WSW,248,15.0,23.0,88,0.00,,,0.00,weatherlink.com 1.10,2013-06-26 21:32:00,
2013-06-26 17:48:00,79.8,76.0,29.96,WSW,250,12.0,24.0,89,0.00,,,0.00,weatherlink.com 1.10,2013-06-26 21:48:00,
2013-06-26 18:03:00,79.7,77.0,29.95,SSW,211,9.0,23.0,90,0.00,,,0.00,weatherlink.com 1.10,2013-06-26 22:03:00,
2013-06-26 18:18:00,79.7,77.0,29.96,SW,219,4.0,15.0,90,0.00,,,0.00,weatherlink.com 1.10,2013-06-26 22:18:00,
2013-06-26 18:33:00,79.6,77.0,29.96,WSW,241,11.0,18.0,90,0.00,,,0.00,weatherlink.com 1.10,2013-06-26 22:33:00,
2013-06-26 18:48:00,79.6,77.0,29.96,SW,234,7.0,16.0,90,0.00,,,0.00,weatherlink.com 1.10,2013-06-26 22:48:00,
2013-06-26 19:03:00,79.3,75.0,29.97,WNW,283,12.0,18.0,87,0.00,,,0.00,weatherlink.com 1.10,2013-06-26 23:03:00,
2013-06-26 19:18:00,79.3,75.0,29.97,WSW,246,12.0,14.0,85,0.00,,,0.00,weatherlink.com 1.10,2013-06-26 23:18:00,
2013-06-26 19:33:00,79.1,74.0,29.97,West,271,9.0,15.0,84,0.00,,,0.00,weatherlink.com 1.10,2013-06-26 23:33:00,
2013-06-26 19:48:00,78.9,74.0,29.97,West,263,9.0,14.0,85,0.00,,,0.00,weatherlink.com 1.10,2013-06-26 23:48:00,
2013-06-26 20:03:00,79.1,74.0,29.96,WSW,256,10.0,15.0,83,0.00,,,0.00,weatherlink.com 1.10,2013-06-27 00:03:00,
2013-06-26 20:18:00,78.7,74.0,29.96,West,269,8.0,16.0,84,0.00,,,0.00,weatherlink.com 1.10,2013-06-27 00:18:00,
2013-06-26 20:33:00,78.5,74.0,29.96,WSW,247,6.0,13.0,86,0.00,,,0.00,weatherlink.com 1.10,2013-06-27 00:33:00,
2013-06-26 20:48:00,78.5,75.0,29.95,West,278,6.0,14.0,88,0.00,,,0.00,weatherlink.com 1.10,2013-06-27 00:48:00,
2013-06-26 21:03:00,78.5,75.0,29.96,SW,230,5.0,12.0,90,0.00,,,0.00,weatherlink.com 1.10,2013-06-27 01:03:00,
2013-06-26 21:18:00,78.8,76.0,29.96,WSW,253,10.0,11.0,91,0.00,,,0.00,weatherlink.com 1.10,2013-06-27 01:18:00,
2013-06-26 21:33:00,79.1,77.0,29.96,WSW,254,9.0,14.0,92,0.00,,,0.00,weatherlink.com 1.10,2013-06-27 01:33:00,
2013-06-26 21:48:00,79.1,77.0,29.97,WSW,246,8.0,19.0,92,0.00,,,0.00,weatherlink.com 1.10,2013-06-27 01:48:00,
2013-06-26 22:03:00,79.1,77.0,29.97,WSW,253,13.0,19.0,92,0.00,,,0.00,weatherlink.com 1.10,2013-06-27 02:03:00,
2013-06-26 22:18:00,79.1,76.0,29.98,WSW,254,8.0,17.0,91,0.00,,,0.00,weatherlink.com 1.10,2013-06-27 02:18:00,
2013-06-26 22:33:00,79.2,76.0,29.98,West,261,9.0,18.0,91,0.00,,,0.00,weatherlink.com 1.10,2013-06-27 02:33:00,
2013-06-26 22:48:00,79.2,76.0,29.96,WSW,242,8.0,15.0,91,0.00,,,0.00,weatherlink.com 1.10,2013-06-27 02:48:00,
2013-06-26 23:03:00,79.1,76.0,29.96,West,266,9.0,15.0,91,0.00,,,0.00,weatherlink.com 1.10,2013-06-27 03:03:00,
2013-06-26 23:18:00,79.0,76.0,29.95,WSW,240,11.0,14.0,91,0.00,,,0.00,weatherlink.com 1.10,2013-06-27 03:18:00,
2013-06-26 23:33:00,79.0,76.0,29.96,WSW,244,9.0,16.0,91,0.00,,,0.00,weatherlink.com 1.10,2013-06-27 03:33:00,
2013-06-26 23:48:00,78.7,76.0,29.95,West,259,15.0,23.0,90,0.00,,,0.00,weatherlink.com 1.10,2013-06-27 03:48:00,